OBJECT AK, 57199

Orbit data source: Space-Track

You're viewing an Uncataloged Satellite

Recently launched and/or uncataloged satellites may have evolving metadata. Metadata may include but not limited to: Owner, Maufacturer, Bus, Motor, and Mission.

OBJECT AK, 57199 is a satellite in SSO that was launched on Tue, 27 Jun 2023 UTC via a SOYUZ-2-1B launch vehicle from the Vostochny Cosmodrome (VOSTO). Unknown objects in Earth's orbit typically refer to objects detected orbiting the Earth but have not yet been identified or cataloged. These objects could be anything from previously untracked satellites, spent rocket stages, debris from satellite collisions, or even natural meteoroids temporarily captured by Earth's gravity.

Loading next visibility...
Identifier
57199, 2023-091AK
Orbit
SSO
Country
Flag of TBDTBD
Related business
Manufacturer
Sputniks
Mission
Operational Commercial Communications
Bus & Motor
CUBESAT 3U?, Unknown motor
Mass
3 kg wet, 3 kg dry
Launch date (UTC)
2023-06-27 (3 years ago)
Launch vehicle
SOYUZ-2-1B
Launch site
Vostochny Cosmodrome (VOSTO)
Object type
Unknown
Shape & HBR
Box, 0.1 m
Radar Cross Section
0.035 m², Small (<0.1 m²)

Expand to show TLE details & history
Last TLE update: 14 hours ago

TLE from 14 hours ago
0 OBJECT AK
1 57199U 23091AK  26105.89634194  .00010572  00000-0  30064-3 0  9995
2 57199  97.5126 175.0524 0005320 296.2993  63.7703 15.36327211155195
Epoch: 2026-04-15T21:30Z
TLE epoch observation values (Epoch: 2026-04-15T21:30:43.943Z)
Latitude
-0.00011°
Longitude
8.31766°
Altitude
458.485 km
Speed
7.638 km/s
True Right ascension
11h 40m 12s
True Declination
0° 00' 00"
Sunlit
Object was in full shadow at epoch
Visualization orbit readout
Latitude
Unknown
Longitude
Unknown
Altitude
Unknown
Speed
Unknown
Apparent Right ascension
Unknown
Apparent Declination
Unknown
Sunlit
N/A
Visualization observer readout
Local Sidereal Time
18:04:45
Azimuth
Unknown
Elevation
Unknown
Doppler factor
Unknown
Orbital elements
Apogee altitude
457.565 km
Perigee altitude
450.295 km
Semi-major axis
6,832.067 km
Eccentricity
0.00053
Inclination
97.5126°
RAAN
175.0524°
Arg. of periapsis
296.2993°
True anomaly
63.825°
Mean anomaly
63.7703°
Eccentric anomaly
63.79765°
Mean motion
3.84339 °/min
Orbital period
93.67 mins
BSTAR
0.00030064
Loading maneuver chart data...
Computing Atmospheric mass density...
Loading historical data...
Loading historical data...
Loading historical data...
Loading historical data...
Loading historical data...
Loading historical data...
Loading historical data...

Documentation

Showing up to 5 results
|